Location: Observatorio Las Palmas
(29.0667°N, 110.9333°W)
Time: 19:24:46
(UTC-07:00)

Skynet4D Del rocket - Visible Passes

Search period start: 01 August 2014 00:00
Search period end: 11 August 2014 00:00
Orbit: 763 x 1292 km, 26.9° (Epoch: 01 August)

Date Brightness Start Highest point End Pass type
(mag) Time Alt. Az. Time Alt. Az. Time Alt. Az.
01 Aug 5.4 03:18:11 18° SE 03:18:11 18° SE 03:20:39 10° ESE visible
01 Aug 4.0 05:03:49 11° WSW 05:08:46 51° SSE 05:14:15 10° E visible
02 Aug 4.2 03:57:05 34° S 03:57:57 36° SSE 04:02:53 10° E visible
03 Aug 5.8 02:50:20 15° ESE 02:50:20 15° ESE 02:51:27 10° ESE visible
03 Aug 3.7 04:35:58 22° WSW 04:39:14 56° SSE 04:44:36 10° E visible
04 Aug 4.3 03:29:13 39° SE 03:29:13 39° SE 03:33:25 10° E visible
04 Aug 3.6 05:15:20 10° W 05:20:38 70° S 05:26:10 10° E visible
05 Aug 3.6 04:08:06 41° SW 04:09:44 61° S 04:15:02 10° E visible
06 Aug 5.0 03:01:21 28° ESE 03:01:21 28° ESE 03:03:59 10° E visible
06 Aug 3.5 04:46:59 17° W 04:51:09 71° S 04:56:32 10° E visible
07 Aug 3.5 03:40:15 66° S 03:40:15 66° S 03:45:31 10° E visible
08 Aug 5.8 02:33:33 16° E 02:33:33 16° E 02:34:35 10° E visible
08 Aug 3.4 04:19:11 32° WSW 04:21:40 71° S 04:26:59 10° E visible
09 Aug 4.4 03:12:32 42° ESE 03:12:32 42° ESE 03:16:04 10° E visible
09 Aug 3.6 04:58:10 12° W 05:03:05 61° S 05:08:21 10° ESE visible
10 Aug 3.4 03:51:33 63° SW 03:52:10 70° S 03:57:29 10° E visible
